| time (UTC) | temp F | wind direction | speed MPH | gust MPH | rain 1hr in | rain 24hr in | rain mn in | humidity % | barometer mb |
| 20260508113011 | 42 | 5 | 0.0 | 0.0 | 0.00 | 0.07 | 0.00 | 80 | 1009.2 |
| 20260508111510 | 40 | 5 | 0.0 | 0.0 | 0.00 | 0.07 | 0.00 | 87 | 1009.1 |
| 20260508110020 | 39 | 5 | 0.0 | 0.0 | 0.00 | 0.07 | 0.00 | 88 | 1009.1 |
| 20260508104507 | 38 | 5 | 0.0 | 0.0 | 0.00 | 0.10 | 0.00 | 87 | 1008.9 |
| 20260508103007 | 38 | 5 | 0.0 | 0.0 | 0.00 | 0.10 | 0.00 | 87 | 1008.8 |
| 20260508101502 | 38 | 5 | 0.0 | 0.0 | 0.00 | 0.10 | 0.00 | 87 | 1008.7 |
| 20260508100002 | 37 | 5 | 0.0 | 0.0 | 0.00 | 0.10 | 0.00 | 86 | 1008.6 |
| 20260508094559 | 37 | 5 | 0.0 | 0.0 | 0.00 | 0.13 | 0.00 | 85 | 1008.4 |
| 20260508093058 | 37 | 5 | 0.0 | 0.0 | 0.00 | 0.13 | 0.00 | 85 | 1008.3 |
| 20260508091609 | 37 | 5 | 0.0 | 0.0 | 0.00 | 0.13 | 0.00 | 83 | 1008.2 |
| 20260508090109 | 38 | 5 | 0.0 | 0.0 | 0.00 | 0.13 | 0.00 | 83 | 1008.2 |
| 20260508084551 | 38 | 5 | 0.0 | 0.0 | 0.00 | 0.22 | 0.00 | 81 | 1008.1 |
| 20260508083050 | 39 | 5 | 0.0 | 0.0 | 0.00 | 0.22 | 0.00 | 80 | 1008.1 |
| 20260508081546 | 39 | 5 | 0.0 | 0.0 | 0.00 | 0.22 | 0.00 | 78 | 1007.8 |
| 20260508080043 | 40 | 5 | 0.0 | 0.0 | 0.00 | 0.22 | 0.00 | 76 | 1007.6 |
| 20260508074543 | 41 | 5 | 0.0 | 0.0 | 0.00 | 0.27 | 0.00 | 74 | 1007.3 |
| 20260508073039 | 42 | 5 | 0.0 | 0.0 | 0.00 | 0.27 | 0.00 | 72 | 1007.0 |
| 20260508071545 | 42 | 5 | 0.0 | 0.0 | 0.00 | 0.27 | 0.00 | 70 | 1006.9 |
| 20260508070030 | 43 | 5 | 0.0 | 0.0 | 0.00 | 0.27 | 0.00 | 69 | 1006.6 |
| 20260508064527 | 44 | 5 | 0.0 | 0.0 | 0.00 | 0.27 | 0.00 | 67 | 1006.4 |
| 20260508063023 | 45 | 5 | 0.0 | 0.0 | 0.00 | 0.27 | 0.00 | 67 | 1006.7 |
| 20260508061522 | 45 | 5 | 0.0 | 0.0 | 0.00 | 0.27 | 0.00 | 64 | 1006.6 |
| 20260508060019 | 46 | 5 | 0.0 | 0.0 | 0.00 | 0.27 | 0.00 | 61 | 1006.6 |
| 20260508054518 | 47 | 5 | 0.0 | 0.0 | 0.00 | 0.27 | 0.00 | 59 | 1006.6 |
| 20260508053027 | 47 | 5 | 0.0 | 0.0 | 0.00 | 0.27 | 0.00 | 57 | 1006.7 |
| 20260508051510 | 48 | 5 | 0.0 | 0.0 | 0.00 | 0.27 | 0.00 | 56 | 1006.6 |
| 20260508050008 | 49 | 5 | 0.0 | 0.0 | 0.00 | 0.27 | 0.00 | 55 | 1006.7 |
| 20260508044506 | 49 | 5 | 0.0 | 0.0 | 0.00 | 0.27 | 0.00 | 53 | 1006.9 |
| 20260508043006 | 49 | 5 | 0.0 | 0.0 | 0.00 | 0.27 | 0.00 | 52 | 1006.7 |
| 20260508041504 | 49 | 5 | 0.0 | 0.0 | 0.00 | 0.27 | 0.00 | 52 | 1006.8 |
| 20260508040002 | 49 | 5 | 0.0 | 0.0 | 0.00 | 0.27 | 0.27 | 52 | 1006.8 |
| 20260508034501 | 49 | 237 | 0.0 | 0.0 | 0.00 | 0.27 | 0.27 | 52 | 1006.8 |
| 20260508033002 | 49 | 284 | 0.0 | 0.0 | 0.00 | 0.27 | 0.27 | 54 | 1006.8 |
| 20260508031500 | 49 | 300 | 0.0 | 0.0 | 0.00 | 0.27 | 0.27 | 53 | 1006.9 |
| 20260508030104 | 49 | 301 | 0.0 | 0.0 | 0.00 | 0.27 | 0.27 | 54 | 1007.0 |
| 20260508024607 | 49 | 302 | 0.0 | 0.0 | 0.00 | 0.27 | 0.27 | 54 | 1007.1 |
| 20260508023100 | 50 | 302 | 0.0 | 0.0 | 0.00 | 0.27 | 0.27 | 53 | 1006.9 |
| 20260508021559 | 50 | 302 | 0.0 | 0.0 | 0.00 | 0.27 | 0.27 | 51 | 1007.1 |
| 20260508020059 | 51 | 302 | 0.0 | 0.0 | 0.00 | 0.27 | 0.27 | 51 | 1007.2 |
| 20260508014558 | 51 | 302 | 0.0 | 0.0 | 0.00 | 0.27 | 0.27 | 50 | 1007.0 |
| 20260508013058 | 52 | 302 | 0.0 | 0.0 | 0.00 | 0.27 | 0.27 | 48 | 1006.9 |
| 20260508011601 | 53 | 302 | 0.0 | 0.0 | 0.00 | 0.27 | 0.27 | 47 | 1006.8 |
| 20260508010056 | 53 | 302 | 0.0 | 0.0 | 0.00 | 0.27 | 0.27 | 46 | 1006.6 |
| 20260508004558 | 54 | 302 | 0.0 | 0.0 | 0.00 | 0.28 | 0.27 | 46 | 1006.3 |
| 20260508003104 | 55 | 302 | 0.0 | 0.0 | 0.00 | 0.28 | 0.27 | 45 | 1005.9 |
| 20260508001554 | 56 | 302 | 0.0 | 0.0 | 0.00 | 0.28 | 0.27 | 43 | 1005.8 |
| 20260508000055 | 57 | 302 | 0.0 | 0.0 | 0.00 | 0.28 | 0.27 | 42 | 1005.6 |
| 20260507234553 | 57 | 302 | 0.0 | 0.0 | 0.00 | 0.31 | 0.27 | 40 | 1005.5 |
| 20260507233101 | 58 | 348 | 0.0 | 0.0 | 0.00 | 0.31 | 0.27 | 39 | 1005.4 |
| 20260507231554 | 59 | 102 | 0.0 | 0.0 | 0.00 | 0.31 | 0.27 | 39 | 1005.2 |
| 20260507230051 | 60 | 236 | 0.0 | 0.0 | 0.00 | 0.31 | 0.27 | 37 | 1005.1 |
| 20260507224557 | 60 | 339 | 0.0 | 0.0 | 0.00 | 0.31 | 0.27 | 35 | 1004.9 |
| 20260507223052 | 61 | 319 | 0.0 | 0.0 | 0.00 | 0.31 | 0.27 | 35 | 1004.6 |
| 20260507221550 | 62 | 342 | 0.0 | 0.0 | 0.00 | 0.31 | 0.27 | 35 | 1004.6 |
| 20260507220049 | 62 | 22 | 0.0 | 0.0 | 0.00 | 0.31 | 0.27 | 34 | 1004.5 |
| 20260507214556 | 63 | 306 | 0.0 | 0.0 | 0.00 | 0.31 | 0.27 | 32 | 1004.5 |
| 20260507213101 | 65 | 263 | 0.0 | 0.0 | 0.00 | 0.31 | 0.27 | 33 | 1004.2 |
| 20260507211549 | 65 | 269 | 0.0 | 0.0 | 0.00 | 0.31 | 0.27 | 33 | 1004.2 |
| 20260507210050 | 65 | 212 | 0.0 | 0.0 | 0.00 | 0.31 | 0.27 | 33 | 1004.0 |
| 20260507204547 | 66 | 294 | 0.0 | 0.0 | 0.00 | 0.31 | 0.27 | 32 | 1004.0 |
| 20260507203047 | 66 | 216 | 0.0 | 0.0 | 0.00 | 0.31 | 0.27 | 34 | 1003.9 |
| 20260507201546 | 66 | 291 | 0.0 | 0.0 | 0.00 | 0.31 | 0.27 | 31 | 1003.9 |
| 20260507200047 | 66 | 216 | 0.0 | 0.0 | 0.00 | 0.31 | 0.27 | 31 | 1003.9 |
| 20260507194612 | 67 | 292 | 0.0 | 0.0 | 0.00 | 0.31 | 0.27 | 31 | 1004.0 |
| 20260507193044 | 67 | 327 | 0.0 | 0.0 | 0.00 | 0.31 | 0.27 | 31 | 1004.3 |
| 20260507191540 | 67 | 235 | 0.0 | 0.0 | 0.00 | 0.31 | 0.27 | 33 | 1004.3 |
| 20260507190042 | 67 | 312 | 0.0 | 0.0 | 0.00 | 0.31 | 0.27 | 33 | 1004.5 |
| 20260507184537 | 66 | 294 | 0.0 | 0.0 | 0.00 | 0.31 | 0.27 | 37 | 1004.7 |
| 20260507183042 | 66 | 304 | 0.0 | 0.0 | 0.00 | 0.31 | 0.27 | 38 | 1004.9 |
| 20260507181531 | 65 | 287 | 0.0 | 0.0 | 0.00 | 0.31 | 0.27 | 40 | 1005.1 |
| 20260507180035 | 65 | 236 | 0.0 | 0.0 | 0.00 | 0.31 | 0.27 | 37 | 1005.1 |
| 20260507173103 | 63 | 239 | 0.0 | 0.0 | 0.00 | 0.31 | 0.27 | 40 | 1005.2 |
| 20260507171637 | 63 | 305 | 0.0 | 0.0 | 0.00 | 0.31 | 0.27 | 40 | 1005.4 |
| 20260507170111 | 62 | 324 | 0.0 | 0.0 | 0.00 | 0.31 | 0.27 | 43 | 1005.6 |
| 20260507164512 | 61 | 340 | 0.0 | 0.0 | 0.00 | 0.31 | 0.27 | 51 | 1005.7 |
| 20260507163105 | 61 | 268 | 0.0 | 0.0 | 0.00 | 0.31 | 0.27 | 55 | 1005.7 |
| 20260507161524 | 60 | 289 | 0.0 | 0.0 | 0.00 | 0.31 | 0.27 | 61 | 1005.9 |
| 20260507160016 | 59 | 298 | 0.0 | 0.0 | 0.00 | 0.31 | 0.27 | 62 | 1006.0 |
| 20260507154609 | 58 | 297 | 0.0 | 0.0 | 0.00 | 0.31 | 0.27 | 64 | 1006.1 |
| 20260507153025 | 58 | 248 | 0.0 | 0.0 | 0.00 | 0.31 | 0.27 | 69 | 1006.4 |
| 20260507151612 | 57 | 304 | 0.0 | 0.0 | 0.00 | 0.31 | 0.27 | 71 | 1006.5 |
| 20260507150024 | 56 | 306 | 0.0 | 0.0 | 0.00 | 0.31 | 0.27 | 71 | 1006.6 |
| 20260507144617 | 56 | 249 | 0.0 | 0.0 | 0.00 | 0.31 | 0.27 | 73 | 1006.6 |
| 20260507143039 | 55 | 341 | 0.0 | 0.0 | 0.00 | 0.31 | 0.27 | 77 | 1006.8 |
| 20260507141502 | 54 | 36 | 0.0 | 0.0 | 0.00 | 0.31 | 0.27 | 81 | 1006.9 |
| 20260507140054 | 53 | 324 | 0.0 | 0.0 | 0.00 | 0.31 | 0.27 | 86 | 1007.0 |
| 20260507134546 | 52 | 344 | 0.0 | 0.0 | 0.00 | 0.31 | 0.27 | 92 | 1006.9 |
| 20260507133004 | 51 | 297 | 0.0 | 0.0 | 0.00 | 0.31 | 0.27 | 95 | 1007.1 |
| 20260507131559 | 51 | 299 | 0.0 | 0.0 | 0.00 | 0.31 | 0.27 | 96 | 1006.9 |
| 20260507130021 | 50 | 256 | 0.0 | 0.0 | 0.00 | 0.31 | 0.27 | 96 | 1007.2 |
| 20260507124633 | 49 | 241 | 0.0 | 0.0 | 0.00 | 0.31 | 0.27 | 96 | 1007.1 |
| 20260507123050 | 49 | 347 | 0.0 | 0.0 | 0.01 | 0.31 | 0.27 | 96 | 1007.0 |
| 20260507121511 | 49 | 348 | 0.0 | 0.0 | 0.02 | 0.31 | 0.27 | 96 | 1007.3 |
| 20260507120109 | 49 | 348 | 0.0 | 0.0 | 0.06 | 0.31 | 0.27 | 96 | 1006.9 |
| 20260507114539 | 48 | 348 | 0.0 | 0.0 | 0.09 | 0.31 | 0.27 | 96 | 1007.0 |